Crosby, ND

9:59 PM CDT on April 27, 2017 (GMT -0500)
Crosby

Weather History for KD50 - January, 2013

Change the Weather History Date:

Thursday, January 31, 2013

  Actual Average (KISN) Record (KISN)
Temperature  
Mean Temperature -13 °F -  
Max Temperature -4 °F 21 °F 54 °F (1931)
Min Temperature -22 °F 0 °F -36 °F (1917)
Degree Days  
Heating Degree Days 78    
Moisture  
Dew Point -24 °F    
Average Humidity 70    
Maximum Humidity 78    
Minimum Humidity 63    
Precipitation  
Precipitation 0.00 in - - ()
Sea Level Pressure  
Sea Level Pressure 30.21 in    
Wind  
Wind Speed 15 mph (West)    
Max Wind Speed 23 mph    
Max Gust Speed 28 mph    
Visibility 9 miles    
Events Rain , Snow    
Averages and records for this station are not official NWS values.
T = Trace of Precipitation, MM = Missing Value Source: NWS Daily Summary

Daily Weather History Graph

Daily Weather History Graph

Search for Another Location

Airport or City:

Trip Planner

Search our weather history database for the weather conditions in past years. The results will help you decide how hot, cold, wet, or windy it might be!

Date:

Astronomy

Jan. 31, 2013 Rise Set
Actual Time 8:24 AM CST 5:49 PM CST
Civil Twilight 7:50 AM CST 6:23 PM CST
Nautical Twilight 7:12 AM CST 7:01 PM CST
Astronomical Twilight 6:35 AM CST 7:38 PM CST
Moon 11:26 PM CST (1/31) 9:56 AM CST (1/31)
Length of Visible Light 10h 33m
Length of Day
9h 25m
Waning Gibbous, 79% of the Moon is Illuminated
Jan 31
Waning Gibbous
Feb 3
Last Quarter
Feb 10
New
Feb 17
First Quarter
Feb 25
Full

Hourly Weather History & Observations

Time (CST) Temp. Windchill Dew Point Humidity Pressure Visibility Wind Dir Wind Speed Gust Speed Precip Events Conditions
12:15 AM -16.6 °F -44.8 °F -22.0 °F 76% 30.11 in 2.5 mi NNW 21.9 mph 27.6 mph N/A Rain Light Freezing Rain
12:35 AM -16.6 °F -44.8 °F -23.8 °F 70% 30.12 in 3.0 mi NNW 21.9 mph - N/A   Haze
12:55 AM -16.6 °F -45.3 °F -23.8 °F 70% 30.13 in 4.0 mi NNW 23.0 mph 27.6 mph N/A Rain Light Freezing Rain
1:15 AM -16.6 °F -42.9 °F -23.8 °F 70% 30.14 in 9.0 mi NNW 18.4 mph - N/A   Mostly Cloudy
1:35 AM -18.4 °F -45.2 °F -23.8 °F 76% 30.15 in 9.0 mi NW 18.4 mph 25.3 mph N/A   Mostly Cloudy
1:55 AM -18.4 °F -44.5 °F -23.8 °F 76% 30.16 in 10.0 mi NW 17.3 mph - N/A   Mostly Cloudy
2:15 AM -18.4 °F -44.5 °F -25.6 °F 70% 30.17 in 10.0 mi NW 17.3 mph - N/A   Scattered Clouds
2:35 AM -18.4 °F -44.5 °F -25.6 °F 70% 30.18 in 10.0 mi NW 17.3 mph - N/A   Scattered Clouds
2:55 AM -18.4 °F -45.2 °F -25.6 °F 70% 30.19 in 10.0 mi NW 18.4 mph 24.2 mph N/A   Partly Cloudy
3:15 AM -20.2 °F -48.2 °F -25.6 °F 76% 30.20 in 10.0 mi NW 19.6 mph - N/A   Clear
3:35 AM -20.2 °F -46.8 °F -25.6 °F 76% 30.20 in 10.0 mi NW 17.3 mph - N/A   Partly Cloudy
3:55 AM -20.2 °F -46.0 °F -25.6 °F 76% 30.21 in 10.0 mi NW 16.1 mph - N/A   Mostly Cloudy
4:15 AM -20.2 °F -45.2 °F -27.4 °F 69% 30.21 in 10.0 mi NW 15.0 mph - N/A   Partly Cloudy
4:35 AM -20.2 °F -45.2 °F -27.4 °F 69% 30.22 in 10.0 mi NW 15.0 mph - N/A   Clear
4:55 AM -20.2 °F -44.4 °F -27.4 °F 69% 30.23 in 10.0 mi NW 13.8 mph - N/A   Clear
5:15 AM -20.2 °F -45.2 °F -27.4 °F 69% 30.24 in 10.0 mi WNW 15.0 mph - N/A   Clear
5:35 AM -20.2 °F -44.4 °F -27.4 °F 69% 30.24 in 10.0 mi NW 13.8 mph - N/A   Clear
5:55 AM -22.0 °F -46.6 °F -27.4 °F 76% 30.25 in 10.0 mi WNW 13.8 mph - N/A   Clear
6:15 AM -22.0 °F -49.1 °F -27.4 °F 76% 30.26 in 10.0 mi WNW 17.3 mph - N/A   Clear
6:35 AM -22.0 °F -49.1 °F -27.4 °F 76% 30.27 in 10.0 mi WNW 17.3 mph - N/A   Clear
6:55 AM -22.0 °F -48.4 °F -27.4 °F 76% 30.27 in 10.0 mi NW 16.1 mph - N/A   Clear
7:15 AM -22.0 °F -47.5 °F -29.2 °F 69% 30.28 in 10.0 mi NW 15.0 mph - N/A   Clear
7:35 AM -22.0 °F -46.6 °F -29.2 °F 69% 30.28 in 10.0 mi WNW 13.8 mph - N/A   Clear
7:55 AM -22.0 °F -45.7 °F -29.2 °F 69% 30.28 in 10.0 mi WNW 12.7 mph - N/A   Clear
8:15 AM -22.0 °F -44.7 °F -29.2 °F 69% 30.29 in 10.0 mi WNW 11.5 mph - N/A   Clear
8:35 AM -22.0 °F -43.6 °F -29.2 °F 69% 30.29 in 10.0 mi WNW 10.4 mph - N/A   Clear
8:55 AM -22.0 °F -43.6 °F -29.2 °F 69% 30.29 in 10.0 mi WNW 10.4 mph - N/A   Clear
9:15 AM -22.0 °F -44.7 °F -29.2 °F 69% 30.30 in 10.0 mi WNW 11.5 mph - N/A   Clear
9:35 AM -22.0 °F -45.7 °F -29.2 °F 69% 30.31 in 10.0 mi WNW 12.7 mph - N/A   Clear
9:55 AM -20.2 °F -43.4 °F -27.4 °F 69% 30.30 in 10.0 mi WNW 12.7 mph - N/A   Clear
10:15 AM -20.2 °F -43.4 °F -29.2 °F 63% 30.30 in 10.0 mi WNW 12.7 mph - N/A   Clear
10:35 AM -20.2 °F -42.4 °F -27.4 °F 69% 30.31 in 10.0 mi West 11.5 mph - N/A   Clear
10:55 AM -20.2 °F -44.4 °F -27.4 °F 69% 30.31 in 10.0 mi West 13.8 mph - N/A   Clear
11:15 AM -18.4 °F -42.1 °F -27.4 °F 63% 30.31 in 10.0 mi WNW 13.8 mph - N/A   Clear
11:35 AM -18.4 °F -42.1 °F -27.4 °F 63% 30.31 in 10.0 mi West 13.8 mph - N/A   Clear
11:55 AM -18.4 °F -41.2 °F -25.6 °F 70% 30.31 in 10.0 mi West 12.7 mph - N/A   Clear
12:15 PM -18.4 °F -40.2 °F -25.6 °F 70% 30.30 in 10.0 mi West 11.5 mph - N/A   Clear
12:35 PM -16.6 °F -38.9 °F -25.6 °F 64% 30.30 in 10.0 mi West 12.7 mph - N/A   Clear
12:55 PM -16.6 °F -36.8 °F -25.6 °F 64% 30.30 in 10.0 mi West 10.4 mph - N/A   Clear
1:15 PM -16.6 °F -39.8 °F -23.8 °F 70% 30.29 in - West 13.8 mph - N/A   Clear
1:35 PM -14.8 °F -36.6 °F -23.8 °F 64% 30.28 in - West 12.7 mph - N/A   Clear
1:55 PM -13.0 °F -34.3 °F -22.0 °F 64% 30.27 in - West 12.7 mph - N/A   Clear
2:15 PM -13.0 °F -35.2 °F -22.0 °F 64% 30.26 in - West 13.8 mph - N/A   Clear
2:35 PM -13.0 °F -34.3 °F -22.0 °F 64% 30.25 in - West 12.7 mph - N/A   Clear
3:15 PM -13.0 °F -34.3 °F -22.0 °F 64% 30.25 in - West 12.7 mph - N/A   Clear
3:35 PM - - - N/A% 30.23 in - West 12.7 mph - N/A   Unknown
3:55 PM -11.2 °F -32.1 °F -20.2 °F 64% 30.23 in - West 12.7 mph - N/A   Clear
4:15 PM - - - N/A% 30.23 in - West 12.7 mph - N/A   Unknown
4:35 PM -13.0 °F -32.4 °F -20.2 °F 70% 30.22 in - West 10.4 mph - N/A   Clear
4:55 PM - - - N/A% 30.21 in - West 9.2 mph - N/A   Unknown
5:15 PM -11.2 °F -27.8 °F -20.2 °F 64% 30.20 in - WSW 8.1 mph - N/A   Clear
5:35 PM -13.0 °F -30.0 °F -20.2 °F 70% 30.21 in - West 8.1 mph - N/A   Clear
5:55 PM -13.0 °F -27.0 °F -20.2 °F 70% 30.20 in - WSW 5.8 mph - N/A   Clear
6:15 PM -14.8 °F -29.1 °F -22.0 °F 70% 30.19 in - SW 5.8 mph - N/A   Clear
6:35 PM -16.6 °F -32.9 °F -22.0 °F 76% 30.18 in - SSW 6.9 mph - N/A   Clear
6:55 PM -16.6 °F -31.3 °F -22.0 °F 76% 30.18 in - SSW 5.8 mph - N/A   Clear
7:15 PM -16.6 °F -32.9 °F -22.0 °F 76% 30.17 in - SSW 6.9 mph - N/A   Clear
7:35 PM -16.6 °F -32.9 °F -23.8 °F 70% 30.16 in - SSW 6.9 mph - N/A   Clear
7:55 PM -16.6 °F -34.4 °F -23.8 °F 70% 30.15 in - South 8.1 mph - N/A   Clear
8:15 PM -16.6 °F -34.4 °F -23.8 °F 70% 30.14 in - South 8.1 mph - N/A   Clear
8:35 PM -16.6 °F -31.3 °F -23.8 °F 70% 30.14 in - South 5.8 mph - N/A   Clear
9:15 PM -13.0 °F -32.4 °F -20.2 °F 70% 30.11 in - SSW 10.4 mph - N/A   Overcast
9:35 PM -11.2 °F -27.8 °F -18.4 °F 70% 30.10 in - SSW 8.1 mph - N/A   Overcast
10:15 PM -7.6 °F -25.7 °F -14.8 °F 71% 30.08 in - SSW 10.4 mph - N/A   Overcast
10:35 PM -7.6 °F -28.3 °F -13.0 °F 77% 30.07 in - SSW 13.8 mph - N/A   Overcast
10:55 PM -5.8 °F -24.4 °F -13.0 °F 71% 30.06 in - SSW 11.5 mph - N/A Snow Heavy Snow
11:15 PM -4.0 °F -22.1 °F -11.2 °F 71% 30.05 in - South 11.5 mph - N/A Snow Heavy Snow
11:35 PM -4.0 °F -24.5 °F -11.2 °F 71% 30.04 in - SSW 15.0 mph - N/A   Overcast
11:55 PM -4.0 °F -25.2 °F -9.4 °F 78% 30.03 in - SSW 16.1 mph - N/A   Overcast